Location: Memmingen
(47.9830°N, 10.1733°E)
Time: 13:43:55
(UTC+01:00)

ISS - Visible Passes

Search period start: 21 January 2018 00:00
Search period end: 31 January 2018 00:00
Orbit: 402 x 407 km, 51.6° (Epoch: 21 January)

Date Brightness Start Highest point End Pass type
(mag) Time Alt. Az. Time Alt. Az. Time Alt. Az.
25 Jan -0.9 19:45:51 10° SW 19:46:19 13° SW 19:46:19 13° SW visible
26 Jan -2.4 18:53:59 10° SSW 18:56:26 25° SSE 18:56:26 25° SSE visible
27 Jan -1.8 18:02:32 10° S 18:04:36 16° SE 18:06:28 11° E visible
27 Jan -2.0 19:37:24 10° WSW 19:39:08 29° WSW 19:39:08 29° WSW visible
28 Jan -3.5 18:45:10 10° SW 18:48:20 50° SSE 18:49:05 40° ESE visible
28 Jan -0.2 20:21:39 10° W 20:21:45 11° W 20:21:45 11° W visible
29 Jan -2.7 17:53:09 10° SSW 17:56:04 31° SE 17:58:58 10° E visible
29 Jan -2.8 19:29:09 10° W 19:31:38 45° WNW 19:31:38 45° WNW visible
30 Jan -3.9 18:36:43 10° WSW 18:39:59 89° NNW 18:41:27 30° ENE visible
30 Jan -0.6 20:13:33 10° WNW 20:14:06 14° WNW 20:14:06 14° WNW visible
